Weather in Lunevo

Russia / Kaluga Oblast     54°35′03″N   35°11′56″E
temp.,
°C
wind,
m/s
gust,
m/s
humid.,
%
clouds,
%
prec.,
mm/h
press.,
hPa
HPBL,
m
11 may, tue
tue1100:00+5ne36800 0.0 102790
03:00+4nne47840 0.0 1027109
06:00+5nne411840 0.0 1027239
09:00+11ne69660 0.0 1026548
12:00+16ne68590 0.0 1024759
15:00+18ene68580 0.0 10241053
18:00+18ene58710 0.0 1023981
21:00+12ese379592 0.3 1024152
12 may, wed
wed1200:00+9se399537 0.0 1026230
03:00+6se37940 0.0 1026143
06:00+6se259212 0.0 1027144
09:00+11e2369100 0.0 1026540
12:00+9ne3587100 0.4 1024329
15:00+9nnw41091100 1.6 1019363
18:00+12ese61294100 8.4 1014972
21:00+6se6119584 8.7 1018519
13 may, thu
thu1300:00+5e41197100 0.0 1019275
03:00+7ese6149475 0.3 1017531
06:00+7se61296100 0.0 1018534
09:00+10sse6881100 0.0 1018761
12:00+15se586031 0.0 10171692
15:00+16sse48588 0.1 10161757
18:00+15se46712 0.0 1015863
21:00+11se489193 0.0 1015129
14 may, fri
fri1400:00+9sse36954 0.0 1015113
03:00+8se3495100 0.0 101560
06:00+10ese3694100 0.0 1015134
09:00+12ese489797 0.8 1014214
12:00+18se71079100 0.7 10141076
15:00+20sse7107512 3.6 10121168
18:00+19sse588166 2.8 1011696
21:00+15s3392100 3.2 101144
15 may, sat
sat1500:00+14ssw229429 0.0 101118
03:00+13se2294100 0.0 101125
06:00+14sse2296100 0.6 100954
09:00+17sse3888100 2.9 1009371
12:00+15sse3693100 3.4 1009226
15:00+18wsw23794 5.0 1008558
18:00+18ne0181100 2.1 100825
21:00+14se2291100 4.1 100716